Regional Weather Roundup
Issued by NWS

Home | Current Version | Previous Version | Graphics & Text | Print | Product List | Glossary On
Versions: 1 2 3 4 5 6 7 8 9 10 11 12 13 14 15 16 17 18 19 20 21 22 23 24 25 26 27 28 29 30 31 32 33 34 35 36 37 38 39 40 41 42 43 44 45 46 47 48 49 50
000
ASUS45 KPSR 140110
RWRAZ

ARIZONA HOURLY REGIONAL WEATHER ROUNDUP
NATIONAL WEATHER SERVICE PHOENIX AZ
600 PM MST SAT FEB 13 2016

NOTE: FAIR INDICATES FEW OR NO CLOUDS BELOW 12,000 FEET WITH NO
SIGNIFICANT WEATHER AND/OR OBSTRUCTIONS TO VISIBILITY.

AZZ001>003-036-140200-
NORTHWEST ARIZONA

CITY           SKY/WX    TMP DP  RH WIND       PRES   REMARKS
BULLHEAD CITY  CLEAR     77  23  13 N13       30.02S
KINGMAN        PTCLDY    67  19  16 N10       30.12S
$$

AZZ004>008-015-016-018-140200-
NORTH CENTRAL ARIZONA

CITY           SKY/WX    TMP DP  RH WIND       PRES   REMARKS
GRAND CANYON   PTCLDY    47  16  29 CALM      30.24R
WILLIAMS       MOCLDY    55   9  15 NW8       30.28S
PRESCOTT       MOCLDY    66  19  16 W9        30.15R
FLAGSTAFF      MOCLDY    51  17  26 SW3       30.23S
PAYSON         CLOUDY    64  23  20 S5        30.16S
PAGE           MOCLDY    56  32  40 CALM      30.15R
$$

AZZ009>014-017-140200-
NORTHEAST ARIZONA

CITY           SKY/WX    TMP DP  RH WIND       PRES   REMARKS
WINSLOW        MOCLDY    64  14  14 N9        30.13S
SAINT JOHNS    PTCLDY    57   4  12 NW7       30.15R
WINDOW ROCK    PTCLDY    55   0  10 W5        30.20R
SHOW LOW       PTCLDY    55  10  16 CALM      30.21R
$$

AZZ023-140200-
GREATER PHOENIX AREA

CITY           SKY/WX    TMP DP  RH WIND       PRES   REMARKS
PHOENIX        PTCLDY    82  26  13 W10       29.95S
BUCKEYE        CLEAR     75  45  33 S3        29.99R
GLENDALE       PTCLDY    81  30  16 S5        29.98S
LUKE AFB       CLEAR     79  34  19 S6        29.95S
DEER VALLEY    PTCLDY    79  23  12 W5        29.97S
SCOTTSDALE     PTCLDY    80  21  11 W3        29.99S
MESA-GATEWAY   PTCLDY    79  25  13 W5        29.97F
CHANDLER       PTCLDY    81  25  12 W7        29.96F
$$

AZZ027-028-140200-
SOUTHWEST MARICOPA COUNTY AND PINAL COUNTY

CITY           SKY/WX    TMP DP  RH WIND       PRES   REMARKS
CASA GRANDE    PTCLDY    77  25  14 CALM      29.99S
GILA BEND      FAIR      80  26  14 W5        29.96R
$$

AZZ503-504-507>509-140200-
SOUTHEAST ARIZONA

CITY           SKY/WX    TMP DP  RH WIND       PRES   REMARKS
TUCSON         PTCLDY    78  20  11 NW10      30.03R
DAVIS-MONTHAN  CLEAR     76  24  14 NW13      30.01R
RYAN FIELD     CLEAR     79  27  14 NW12      30.02R
NOGALES        PTCLDY    75  12   9 W8        30.07R
SIERRA VISTA   PTCLDY    69  13  11 W10       30.11R
DOUGLAS        FAIR      71  13  10 SE7       30.05S
SAFFORD        PTCLDY    72  15  11 W7        30.02S
$$

AZZ020-021-025-026-031-140200-
SOUTHWEST ARIZONA

CITY           SKY/WX    TMP DP  RH WIND       PRES   REMARKS
YUMA           CLEAR     81  40  23 W5        29.95S
$$

CAZ031-033-041-043-047-048-061-140200-
SOUTHERN CALIFORNIA

CITY           SKY/WX    TMP DP  RH WIND       PRES   REMARKS
DOWNTOWN L.A.  CLEAR     63  52  67 VRB3      30.03S HAZE
L.A. AIRPORT   PTCLDY    57  52  83 W8        30.03F
SAN DIEGO      PTCLDY    64  54  69 NW6       30.04S
BURBANK        CLEAR     74  39  28 SE6       30.02S
ONTARIO        PTCLDY    74  43  32 W8        30.03R
RIVERSIDE      CLEAR     74  38  27 W9        30.03R
PALM SPRINGS   CLEAR     83  25  12 CALM      29.99S
EL CENTRO NAS  PTCLDY    83  24  11 SE3       29.98R
IMPERIAL       PTCLDY    84  26  12 NW3       29.95R
BLYTHE         CLEAR     81  31  16 NE5       29.97F
NEEDLES        CLEAR     79  22  12 N12       30.02R
$$

NVZ020-UTZ003-140200-
SOUTHERN NEVADA-UTAH

CITY           SKY/WX    TMP DP  RH WIND       PRES   REMARKS
LAS VEGAS      FAIR      73  22  14 CALM      30.07R
SALT LAKE CITY CLEAR     32  28  85 NW8       30.31R FOG     WCI  25
$$

NMZ009-TXZ055-140200-
NEW MEXICO-WEST TEXAS

CITY           SKY/WX    TMP DP  RH WIND       PRES   REMARKS
ALBUQUERQUE    PTCLDY    63  13  14 S8        30.08F
EL PASO        MOCLDY    71   5   7 W7        30.05S
$$


........................KEY........................
SKY/WX - SKY CONDITION/WEATHER
TMP    - TEMPERATURE IN FAHRENHEIT
DP     - DEW POINT IN FAHRENHEIT
RH     - RELATIVE HUMIDITY IN PERCENT
WIND   - DIRECTION AND SPEED IN MILES PER HOUR (MPH)
VRB    - VARIABLE WIND DIRECTION
PRES   - MEAN SEA LEVEL PRESSURE IN INCHES OF MERCURY
         F - FALLING PRESSURE   R - RISING PRESSURE
         S - STEADY PRESSURE
VSB    - VISIBILITY IN MILES
HX     - HEAT INDEX IN FAHRENHEIT
WCI    - WIND CHILL INDEX IN FAHRENHEIT
TC     - TEMPERATURE IN CELSIUS WHICH IS ALSO KNOWN AS
         TEMPERATURE IN CENTIGRADE
AFB    - AIR FORCE BASE
         LUKE AFB IS LUKE AIR FORCE BASE
         DAVIS-MONTHAN IS DAVIS-MONTHAN AIR FORCE BASE
NAS    - NAVAL AIR STATION
         EL CENTRO NAS IS EL CENTRO NAVAL AIR STATION
N/A    - NOT AVAILABLE




USA.gov is the U.S. government's official web portal to all federal, state and local government web resources and services.